{"data":{"norad_id":62307,"intl_designator":"2024-239G","name":"STARLINK-32646","alt_names":[],"object_type":"PAYLOAD","status":"ACTIVE","operator":null,"country":"US","launch_date":"2024-12-13","launch_site_code":"AFWTR","launch_vehicle":null,"mission":null,"orbit_class":"UNKNOWN","rcs_meters":null,"size_class":null,"mass_kg":null,"dimensions":null,"purposes":["comms"],"wikipedia_slug":null,"has_3d_model":false,"image_url":null,"decayed_at":null,"tle_current":{"epoch":"2026-05-24T19:45:35.611776Z","epoch_age_seconds":90420,"freshness":"FRESH","line1":"1 62307U 24239G   26144.82332884  .00012062  00000+0  41894-3 0  9992","line2":"2 62307  53.1581 187.2709 0001203  85.1214 274.9924 15.30182378 81222","mean_motion":15.30182378,"eccentricity":0.0001203,"inclination_deg":53.1581,"raan_deg":187.2709,"arg_perigee_deg":85.1214,"mean_anomaly_deg":274.9924,"bstar":0.00041894,"rev_number":8122,"period_min":94.106429449418,"perigee_km":474.44322145616,"apogee_km":476.09215062362,"semimajor_km":6853.4046860399,"source":"CELESTRAK","updated_at":"2026-05-25T13:38:19.648272Z"}}}